[[{"header":{"parameterUnit":"m.s-1","parameterCategory":1,"la1":30.2991,"la2":30.254,"lo1":-89.0895,"lo2":-89.0444,"dy":0.0017,"dx":0.0017,"nx":28,"ny":28,"refTime":"2024-04-23T09:00:00:Z","depth":0,"parameterNumber":2,"parameterNumberName":"U-component_of_WINDS"},"data":[0,0,0,0,0,0,0,0,0,0,0,0,0,0,0,0,0,0,0,0,0,0,0,0,0,0,0,0,0,0,0,0,0,0,0,0,0,0,0,0,0,0,0,0,0,0,0,0,0,0,0,0,0,0,0,0,0,0,-1.5939,-1.594,0,-1.6056,-1.6057,-1.6058,-1.6052,-1.6051,-1.6049,-1.6047,-1.6166,-1.617,-1.6175,0,0,0,0,0,0,0,0,0,0,0,0,0,-1.5709,-1.5713,-1.5938,-1.594,-1.5941,-1.6055,-1.6057,-1.6059,-1.6053,-1.6051,-1.6049,-1.6047,-1.6164,-1.617,-1.6175,0,0,0,0,0,0,0,0,0,0,0,0,0,-1.5816,-1.5715,-1.5938,-1.5952,-1.5955,-1.6055,-1.6057,-1.6059,-1.6053,-1.6051,-1.6048,-1.6046,-1.6162,-1.6169,-1.6176,-1.627,0,0,-1.6198,-1.6201,0,0,0,0,0,0,0,0,-1.581,-1.5824,-1.5949,-1.5951,-1.5954,-1.6037,-1.602,-1.613,-1.6054,-1.6016,-1.6047,-1.6044,-1.6125,-1.6135,-1.6162,-1.6275,-1.628,-1.6198,-1.6203,-1.6206,-1.6208,0,0,0,0,0,0,0,-1.5802,-1.5819,-1.5985,-1.595,-1.5954,-1.5952,-1.5965,-1.604,-1.6083,-1.6019,-1.6019,-1.6033,-1.6126,-1.6155,-1.6165,-1.6282,-1.6198,-1.6204,-1.6209,-1.6211,-1.648,-1.6483,0,0,0,0,0,0,-1.5792,-1.5813,-1.5981,-1.5988,-1.5874,-1.5959,-1.5972,-1.6013,-1.6082,-1.609,-1.6035,-1.6032,-1.6144,-1.6157,-1.6169,-1.6285,-1.6206,-1.6212,-1.6216,-1.6477,-1.6481,-1.6484,0,0,0,0,0,0,-1.5787,-1.5807,-1.5976,-1.5901,-1.5922,-1.5965,-1.6011,-1.6016,-1.6046,-1.6094,-1.6101,-1.6057,-1.6143,-1.6159,-1.6245,-1.6288,-1.6215,-1.6222,-1.6474,-1.6478,-1.6482,-1.6516,0,0,0,0,0,0,-1.5781,-1.5805,-1.5841,-1.5902,-1.5926,-1.6051,-1.6013,-1.6021,-1.6058,-1.6056,-1.6117,-1.6125,-1.6142,-1.6235,-1.6252,-1.6297,-1.6227,-1.647,-1.6476,-1.6481,-1.6511,-1.6521,-1.6529,0,0,0,0,0,-1.5772,-1.5845,-1.5843,-1.5864,-1.5972,-1.6053,-1.6068,-1.6087,-1.6062,-1.6099,-1.613,-1.6123,-1.6281,-1.6244,-1.6263,-1.6311,-1.6467,-1.6474,-1.648,-1.6507,-1.6519,-1.6529,0,0,0,0,0,0,-1.5788,-1.5853,-1.5852,-1.5946,-1.5995,-1.6052,-1.6099,-1.6098,-1.6154,-1.6149,-1.617,-1.6184,-1.6271,-1.6299,-1.6257,-1.6406,-1.6371,-1.6382,-1.6384,-1.6396,-1.6405,-1.6396,-1.6233,0,0,0,0,0,-1.5803,-1.5863,-1.5917,-1.5995,-1.602,-1.6056,-1.6091,-1.6102,-1.6153,-1.6173,-1.621,-1.6259,-1.632,-1.6359,-1.6418,-1.6515,-1.6529,-1.6557,-1.6566,-1.6573,-1.6583,-1.6637,-1.6651,-1.6505,-1.6505,-1.6505,0,0,-1.5833,-1.5876,-1.5913,-1.6,-1.6038,-1.6101,-1.6072,-1.6139,-1.6186,-1.6183,-1.6267,-1.6296,-1.6352,-1.6445,-1.6487,-1.6471,-1.6626,-1.6582,-1.6587,-1.6592,-1.6645,-1.6659,-1.6671,-1.651,-1.6509,-1.6508,0,0,-1.5921,-1.5959,-1.603,-1.6069,-1.6129,-1.6152,-1.6169,-1.6228,-1.6247,-1.6332,-1.6332,-1.6387,-1.6491,-1.6532,-1.6566,-1.6671,-1.6667,-1.6689,-1.6737,-1.679,-1.6801,-1.6812,-1.685,-1.6863,-1.6698,-1.6698,-1.6699,0,-1.5951,-1.6046,-1.6066,-1.6134,-1.6172,-1.6174,-1.6245,-1.6282,-1.6357,-1.6384,-1.6365,-1.6497,-1.6534,-1.6637,-1.6663,-1.669,-1.6711,-1.6683,-1.6798,-1.6809,-1.6818,-1.6855,-1.687,-1.6701,-1.6701,-1.67,-1.67,0,-1.608,-1.6146,-1.6196,-1.627,-1.6314,-1.6383,-1.6414,-1.6456,-1.6464,-1.6489,-1.6577,-1.6622,-1.6691,-1.6716,-1.6723,-1.682,-1.6808,-1.6793,-1.6759,-1.6834,-1.687,-1.6884,-1.6704,-1.6703,-1.6703,-1.6702,0,0,-1.618,-1.6266,-1.6284,-1.6318,-1.6384,-1.6436,-1.6505,-1.6573,-1.661,-1.6662,-1.6721,-1.681,-1.6798,-1.6836,-1.6848,-1.6895,-1.6977,-1.6875,-1.6876,-1.6893,-1.7088,-1.7099,-1.7115,-1.6975,-1.6977,-1.698,-1.7083,0,-1.6275,-1.64,-1.6421,-1.653,-1.6592,-1.6595,-1.6656,-1.6703,-1.673,-1.6786,-1.6814,-1.6877,-1.6855,-1.6879,-1.6925,-1.6957,-1.7016,-1.695,-1.703,-1.7033,-1.7017,-1.7133,-1.7145,-1.724,-1.7097,-1.7099,-1.7101,0,-1.6402,-1.646,-1.6576,-1.6635,-1.6662,-1.6717,-1.6782,-1.6835,-1.6889,-1.6905,-1.6949,-1.6956,-1.7029,-1.6992,-1.7093,-1.7047,-1.7081,-1.7102,-1.7106,-1.7115,-1.7072,-1.7145,-1.7271,-1.7286,-1.7123,-1.7121,-1.7119,0,-1.6465,-1.657,-1.6654,-1.6683,-1.6755,-1.6793,-1.6825,-1.6876,-1.6917,-1.6973,-1.6999,-1.7063,-1.7098,-1.7148,-1.7172,-1.7142,-1.7272,-1.7236,-1.7287,-1.7287,-1.7314,-1.7312,-1.7448,-1.7336,-1.7336,-1.7335,-1.7335,0,-1.6569,-1.664,-1.6683,-1.6734,-1.6815,-1.6838,-1.6917,-1.6947,-1.6994,-1.7051,-1.7057,-1.711,-1.7139,-1.7197,-1.7216,-1.7298,-1.7313,-1.7328,-1.7333,-1.7328,-1.7326,-1.7351,-1.7345,-1.7339,-1.7338,-1.7338,-1.7337,0,-1.6652,-1.6683,-1.6775,-1.6836,-1.6853,-1.6909,-1.6961,-1.7011,-1.7038,-1.7111,-1.7129,-1.7171,-1.7239,-1.7269,-1.7353,-1.7366,-1.7459,-1.7458,-1.7441,-1.7443,-1.7493,-1.7488,-1.765,-1.7672,-1.7545,-1.7546,-1.7547,0,-1.6716,-1.6771,-1.6839,-1.6878,-1.6911,-1.6974,-1.7016,-1.7042,-1.7085,-1.7152,-1.7194,-1.7263,-1.732,-1.743,-1.7467,-1.7532,-1.7533,-1.7585,-1.7542,-1.7536,-1.7534,-1.7531,-1.7537,-1.7592,-1.7594,-1.7595,-1.7596,0,-1.6828,-1.6841,-1.6901,-1.6968,-1.7017,-1.707,-1.7122,-1.7154,-1.7188,-1.7236,-1.7307,-1.7351,-1.7438,-1.7507,-1.7574,-1.7606,-1.7607,-1.7609,-1.7624,-1.762,-1.7609,-1.7616,-1.7463,-1.7605,-1.7604,-1.7603,-1.7603,-1.7602,-1.6904,-1.6953,-1.7009,-1.7076,-1.7119,-1.7167,-1.7218,-1.7252,-1.7312,-1.7385,-1.7397,-1.7473,-1.7527,-1.7618,-1.7653,-1.7712,-1.7699,-1.7721,-1.7727,-1.7732,-1.7736,-1.7599,-1.7725,-1.7724,-1.7724,-1.7724,-1.7724,0,-1.7016,-1.7053,-1.7114,-1.7188,-1.7241,-1.7238,-1.7296,-1.734,-1.7408,-1.7458,-1.7515,-1.7597,-1.7664,-1.7708,-1.7775,-1.7815,-1.7817,-1.7832,-1.783,-1.7837,-1.7743,-1.7724,-1.7829,-1.7829,-1.7829,-1.7829,-1.7829,-1.7829,-1.7081,-1.7165,-1.7186,-1.7291,-1.7327,-1.7403,-1.7436,-1.7482,-1.7522,-1.7615,-1.7671,-1.7699,-1.7748,-1.7819,-1.7881,-1.7892,-1.7917,-1.7933,-1.7943,-1.7855,-1.7844,-1.7833,-1.7815,-1.7938,-1.7938,-1.8032,-1.8033,-1.8033]},{"header":{"parameterUnit":"m.s-1","parameterCategory":1,"la1":30.2991,"la2":30.254,"lo1":-89.0895,"lo2":-89.0444,"dy":0.0017,"dx":0.0017,"nx":28,"ny":28,"refTime":"2024-04-23T09:00:00:Z","depth":0,"parameterNumber":3,"parameterNumberName":"V-component_of_WINDS"},"data":[0,0,0,0,0,0,0,0,0,0,0,0,0,0,0,0,0,0,0,0,0,0,0,0,0,0,0,0,0,0,0,0,0,0,0,0,0,0,0,0,0,0,0,0,0,0,0,0,0,0,0,0,0,0,0,0,0,0,-1.7455,-1.7456,0,-1.747,-1.747,-1.7471,-1.7477,-1.7477,-1.7476,-1.7476,-1.749,-1.749,-1.7491,0,0,0,0,0,0,0,0,0,0,0,0,0,-1.7431,-1.7431,-1.7455,-1.7456,-1.7456,-1.747,-1.747,-1.7471,-1.7477,-1.7477,-1.7476,-1.7476,-1.749,-1.749,-1.7491,0,0,0,0,0,0,0,0,0,0,0,0,0,-1.7443,-1.7431,-1.7455,-1.7461,-1.7461,-1.747,-1.747,-1.7471,-1.7477,-1.7477,-1.7476,-1.7476,-1.749,-1.749,-1.7491,-1.7495,0,0,-1.7493,-1.7493,0,0,0,0,0,0,0,0,-1.7442,-1.7444,-1.746,-1.746,-1.7461,-1.7472,-1.7467,-1.7479,-1.7477,-1.7471,-1.7476,-1.7476,-1.7484,-1.7485,-1.7488,-1.7496,-1.7497,-1.7493,-1.7493,-1.7493,-1.7494,0,0,0,0,0,0,0,-1.7441,-1.7443,-1.7461,-1.746,-1.7461,-1.7462,-1.7463,-1.7469,-1.7477,-1.7471,-1.7472,-1.7473,-1.7484,-1.7487,-1.7488,-1.7497,-1.7493,-1.7493,-1.7494,-1.7494,-1.7509,-1.7509,0,0,0,0,0,0,-1.744,-1.7442,-1.7461,-1.7462,-1.7451,-1.7462,-1.7464,-1.7468,-1.7477,-1.7479,-1.7473,-1.7474,-1.7486,-1.7487,-1.7489,-1.7494,-1.7493,-1.7494,-1.7494,-1.7509,-1.7509,-1.7509,0,0,0,0,0,0,-1.7439,-1.7441,-1.746,-1.7452,-1.7455,-1.7463,-1.7467,-1.7468,-1.7471,-1.7479,-1.748,-1.7475,-1.7486,-1.7488,-1.7494,-1.7495,-1.7494,-1.7495,-1.7509,-1.7509,-1.7509,-1.7506,0,0,0,0,0,0,-1.7439,-1.7441,-1.7444,-1.7452,-1.7455,-1.7466,-1.7467,-1.7469,-1.7473,-1.7473,-1.7481,-1.7482,-1.7486,-1.7493,-1.7494,-1.7496,-1.7495,-1.7509,-1.7509,-1.7509,-1.7506,-1.7506,-1.7506,0,0,0,0,0,-1.7438,-1.7442,-1.7444,-1.7446,-1.7458,-1.7466,-1.7467,-1.7472,-1.7473,-1.7475,-1.7479,-1.7482,-1.7494,-1.7493,-1.7495,-1.7497,-1.7509,-1.7509,-1.7509,-1.7506,-1.7506,-1.7506,0,0,0,0,0,0,-1.7433,-1.7443,-1.7445,-1.7452,-1.7458,-1.7467,-1.7469,-1.7472,-1.7478,-1.7478,-1.7483,-1.7485,-1.749,-1.7494,-1.7493,-1.7501,-1.7502,-1.7502,-1.7499,-1.7499,-1.7499,-1.7498,-1.7496,0,0,0,0,0,-1.7432,-1.7438,-1.7447,-1.7452,-1.7455,-1.7462,-1.7465,-1.7469,-1.7475,-1.7477,-1.7482,-1.7487,-1.7492,-1.7496,-1.7501,-1.7506,-1.7508,-1.7508,-1.7508,-1.7508,-1.7508,-1.7511,-1.7511,-1.751,-1.751,-1.751,0,0,-1.7432,-1.7438,-1.7441,-1.7451,-1.7456,-1.7461,-1.7464,-1.7469,-1.7473,-1.7478,-1.7484,-1.7487,-1.7494,-1.7499,-1.7502,-1.7502,-1.7509,-1.7508,-1.7508,-1.7508,-1.7511,-1.7511,-1.7511,-1.751,-1.751,-1.751,0,0,-1.7433,-1.7439,-1.7444,-1.7449,-1.7456,-1.7461,-1.7462,-1.747,-1.7473,-1.7479,-1.7483,-1.7487,-1.7496,-1.75,-1.7503,-1.7506,-1.7508,-1.7507,-1.7507,-1.7509,-1.7509,-1.7509,-1.751,-1.751,-1.7507,-1.7507,-1.7507,0,-1.7432,-1.744,-1.7446,-1.7451,-1.7455,-1.746,-1.7465,-1.7469,-1.7478,-1.748,-1.748,-1.7491,-1.7496,-1.7502,-1.7503,-1.7506,-1.7507,-1.7506,-1.7509,-1.7509,-1.7509,-1.751,-1.751,-1.7507,-1.7507,-1.7507,-1.7507,0,-1.7438,-1.7443,-1.7446,-1.7455,-1.7459,-1.7464,-1.747,-1.7474,-1.7476,-1.7481,-1.7486,-1.7492,-1.7498,-1.75,-1.7503,-1.7507,-1.7507,-1.7508,-1.7509,-1.7509,-1.751,-1.751,-1.7507,-1.7507,-1.7507,-1.7507,0,0,-1.7437,-1.7448,-1.7449,-1.7453,-1.7461,-1.7466,-1.747,-1.7477,-1.748,-1.7485,-1.7489,-1.7496,-1.7497,-1.7501,-1.7504,-1.7506,-1.7508,-1.7507,-1.7508,-1.7507,-1.7512,-1.7511,-1.7511,-1.7509,-1.7509,-1.751,-1.7512,0,-1.7439,-1.7449,-1.7454,-1.7461,-1.7466,-1.7471,-1.7475,-1.748,-1.7484,-1.7488,-1.7492,-1.7497,-1.7498,-1.7501,-1.7503,-1.7507,-1.7509,-1.7507,-1.7513,-1.7513,-1.7511,-1.7512,-1.7511,-1.7513,-1.7512,-1.7512,-1.7512,0,-1.7444,-1.745,-1.7458,-1.7465,-1.7467,-1.7471,-1.7477,-1.7482,-1.7487,-1.749,-1.7494,-1.7497,-1.7501,-1.7502,-1.7508,-1.7507,-1.7509,-1.7511,-1.7511,-1.7512,-1.7513,-1.7513,-1.7513,-1.7514,-1.7513,-1.7513,-1.7513,0,-1.7442,-1.7452,-1.7458,-1.7461,-1.747,-1.7472,-1.7476,-1.7482,-1.7485,-1.749,-1.7492,-1.7498,-1.7501,-1.7504,-1.7509,-1.7509,-1.7514,-1.7515,-1.7516,-1.7516,-1.7517,-1.7517,-1.7518,-1.7519,-1.7519,-1.7519,-1.7519,0,-1.7445,-1.7449,-1.7457,-1.7461,-1.7466,-1.7471,-1.7476,-1.748,-1.7485,-1.7489,-1.7492,-1.7496,-1.7501,-1.7505,-1.7509,-1.7513,-1.7514,-1.7516,-1.7517,-1.7516,-1.7516,-1.7518,-1.7518,-1.7519,-1.7519,-1.7519,-1.7519,0,-1.7444,-1.745,-1.7456,-1.7464,-1.7466,-1.7469,-1.7476,-1.7479,-1.7483,-1.7488,-1.7489,-1.7495,-1.75,-1.7505,-1.7511,-1.7513,-1.7518,-1.7519,-1.7516,-1.7516,-1.7517,-1.7517,-1.752,-1.752,-1.752,-1.752,-1.752,0,-1.7445,-1.7449,-1.7457,-1.746,-1.7464,-1.7469,-1.7472,-1.7478,-1.7481,-1.7488,-1.749,-1.7495,-1.75,-1.7507,-1.7512,-1.7517,-1.7518,-1.7518,-1.7518,-1.7517,-1.7518,-1.7517,-1.7518,-1.7518,-1.7518,-1.7518,-1.7518,0,-1.7447,-1.7449,-1.7455,-1.7461,-1.7465,-1.747,-1.7475,-1.7477,-1.7483,-1.7486,-1.7492,-1.7495,-1.7502,-1.7507,-1.7512,-1.7515,-1.7518,-1.7518,-1.7519,-1.7518,-1.7516,-1.7517,-1.7516,-1.7518,-1.7518,-1.7518,-1.7518,-1.7518,-1.7447,-1.745,-1.7457,-1.7462,-1.7466,-1.7471,-1.7474,-1.7479,-1.7483,-1.7489,-1.7492,-1.7497,-1.7502,-1.751,-1.7513,-1.7517,-1.7517,-1.7518,-1.7518,-1.7518,-1.7518,-1.7515,-1.7517,-1.7517,-1.7517,-1.7518,-1.7518,0,-1.7449,-1.7453,-1.7458,-1.7465,-1.7469,-1.7471,-1.7477,-1.748,-1.7485,-1.7489,-1.7494,-1.7499,-1.7504,-1.7509,-1.7514,-1.7516,-1.7517,-1.7517,-1.7517,-1.7518,-1.7517,-1.7516,-1.7516,-1.7516,-1.7516,-1.7516,-1.7516,-1.7516,-1.745,-1.7456,-1.7459,-1.7466,-1.747,-1.7476,-1.7479,-1.7482,-1.7486,-1.7493,-1.7497,-1.75,-1.7505,-1.751,-1.7514,-1.7516,-1.7517,-1.7517,-1.7518,-1.7518,-1.7518,-1.7518,-1.7517,-1.7517,-1.7517,-1.7518,-1.7518,-1.7518]}]]